EW6420 Weather Reports


Display with metric or nautical units.
time (UTC)temp
F
wind
direction
speed
MPH
gust
MPH
rain 1hr
in
rain 24hr
in
rain mn
in
humidity
%
barometer
mb
20260504043005 66 87 0.0 0.0 0.00 0.00 0.00 57 1009.0
20260504041503 67 87 0.0 0.0 0.00 0.00 0.00 55 1008.8
20260504040005 68 87 0.0 0.0 0.00 0.00 0.00 53 1008.8
20260504034504 70 87 0.0 0.0 0.00 0.00 0.00 52 1008.7
20260504033005 71 87 0.0 0.0 0.00 0.00 0.00 50 1008.6
20260504031504 71 87 0.0 0.0 0.00 0.00 0.00 47 1008.5
20260504030007 72 87 0.0 0.0 0.00 0.00 0.00 46 1008.5
20260504024502 73 87 0.0 0.0 0.00 0.00 0.00 46 1008.5
20260504023002 74 87 0.0 2.0 0.00 0.00 0.00 45 1008.5
20260504021504 75 87 0.0 0.0 0.00 0.00 0.00 44 1008.5
20260504020005 76 87 0.0 0.0 0.00 0.00 0.00 43 1008.5
20260504014505 76 87 0.0 2.0 0.00 0.00 0.00 43 1008.5
20260504013005 77 87 0.0 2.0 0.00 0.00 0.00 42 1008.6
20260504011504 78 87 0.0 2.0 0.00 0.00 0.00 42 1008.8
20260504010006 78 96 0.0 2.0 0.00 0.00 0.00 41 1008.9
20260504004505 78 95 0.0 2.0 0.00 0.00 0.00 41 1009.1
20260504003005 79 95 0.0 2.0 0.00 0.00 0.00 41 1009.2
20260504001510 79 100 0.0 3.0 0.00 0.00 0.00 41 1009.3
20260504000006 79 99 0.0 2.0 0.00 0.00 0.00 41 1009.4
20260503234503 78 89 0.0 3.0 0.00 0.00 0.00 41 1009.5
20260503233005 78 73 1.0 4.0 0.00 0.00 0.00 41 1009.6
20260503231503 78 63 0.0 2.0 0.00 0.00 0.00 41 1009.9
20260503230004 78 90 0.0 2.0 0.00 0.00 0.00 44 1010.0
20260503224503 78 94 0.0 3.0 0.00 0.00 0.00 44 1010.2
20260503223003 78 75 0.0 2.0 0.00 0.00 0.00 43 1010.5
20260503221504 77 57 0.0 2.0 0.00 0.00 0.00 46 1010.6
20260503220008 76 93 0.0 4.0 0.00 0.00 0.00 46 1010.7
20260503214503 76 69 0.0 2.0 0.00 0.00 0.00 47 1011.0
20260503213004 76 68 0.0 2.0 0.00 0.00 0.00 47 1011.1
20260503211504 75 83 1.0 3.0 0.00 0.00 0.00 47 1011.2
20260503210005 75 66 0.0 2.0 0.00 0.00 0.00 50 1011.4
20260503203005 74 90 0.0 4.0 0.00 0.00 0.00 51 1011.7
20260503201505 73 142 0.0 3.0 0.00 0.00 0.00 53 1011.8
20260503193006 71 135 0.0 2.0 0.00 0.00 0.00 57 1012.4
20260503191507 71 87 0.0 2.0 0.00 0.00 0.00 57 1012.6
20260503184504 69 88 0.0 1.0 0.00 0.00 0.00 59 1012.8
20260503183005 68 88 0.0 3.0 0.00 0.00 0.00 62 1013.0
20260503181505 68 92 0.0 3.0 0.00 0.00 0.00 63 1013.1
20260503180006 67 81 0.0 2.0 0.00 0.00 0.00 64 1013.3
20260503174502 66 70 0.0 1.0 0.00 0.00 0.00 66 1013.3
20260503173003 66 87 0.0 3.0 0.00 0.00 0.00 66 1013.3
20260503171503 65 92 0.0 3.0 0.00 0.00 0.00 67 1013.4
20260503071505 58 80 0.0 0.0 0.00 0.00 0.00 77 1014.0
20260503054504 60 80 0.0 0.0 0.00 0.00 0.00 72 1013.8
20260503051505 61 80 0.0 0.0 0.00 0.00 0.00 69 1013.7
20260503050005 62 80 0.0 0.0 0.00 0.00 0.00 67 1013.6
20260503044504 63 80 0.0 0.0 0.00 0.00 0.00 64 1013.5